Regional Weather Roundup
Issued by NWS

Home | Current Version | Previous Version | Graphics & Text | Print | Product List | Glossary On
Versions: 1 2 3 4 5 6 7 8 9 10 11 12 13 14 15 16 17 18 19 20 21 22 23 24 25 26 27 28 29 30 31 32 33 34 35 36 37 38 39 40 41 42 43 44 45 46 47 48 49 50
000
ASUS43 KIND 041709
RWRIN

WEATHER ROUNDUP FOR INDIANA
NATIONAL WEATHER SERVICE INDIANAPOLIS IN
100 PM EDT TUE AUG 04 2015

NOTE: "FAIR" INDICATES FEW OR NO CLOUDS BELOW 12,000 FEET WITH NO
SIGNIFICANT WEATHER AND/OR OBSTRUCTIONS TO VISIBILITY.

* - STATION DOES NOT REPORT WEATHER SUCH AS PRECIPITATION OR FOG.

+ - STATION NOT QUALITY CONTROLLED BY THE NATIONAL WEATHER SERVICE.
    USE DATA WITH CAUTION...ESPECIALLY DEWPOINT AND RELATIVE
    HUMIDITY OBSERVATIONS.

INZ001>003-010>013-019-020-041800-
NORTHWEST INDIANA

CITY           SKY/WX    TMP DP  RH WIND       PRES   REMARKS
GARY /AIRPORT/ PTSUNNY   79  50  36 W10       29.98S
KNOX *+        SUNNY     77  54  44 W9        29.98R
LA PORTE +     SUNNY     79  55  43 W8        29.99S
MICHIGAN CITY+ SUNNY     77  46  33 NW12      29.99S
MONTICELLO +   SUNNY     78  59  51 W8        29.99S
RENSSELAER +   SUNNY     77  55  47 W7        30.00S
VALPARAISO     SUNNY     78  52  40 VRB7      29.99S

$$

LMZ046-743>745-041800-
SOUTHERN LAKE MICHIGAN

STATION/POSITION TIME  TEMP    WIND        PRES    WAVE
                       AIR SEA DIR/SP/G            HT
                 (UTC) (F)     (DEG/KT/KT) (MB)    (FT)
BURNS HARBOR     1600   73     330/  4/  5 1015.6F
MICHIGAN CITY    1600   71     240/  8/  8   N/A
5NW MICH CITY    1700   73 74  290/  4/  6   N/A     1

$$

INZ004-005-014>016-021>024-041800-
NORTH CENTRAL INDIANA

CITY           SKY/WX    TMP DP  RH WIND       PRES   REMARKS
ELKHART        MOSUNNY   77  50  38 NW9G17    29.98F
GOSHEN         MOSUNNY   77  57  50 W12G20    29.97F
LOGANSPORT +   MOSUNNY   77  50  38 W7G16     30.00F
PERU/GRISSOM   SUNNY     77  59  53 W12       29.98F
ROCHESTER +    MOSUNNY   79  59  50 SW5       29.99F
SOUTH BEND     MOSUNNY   79  53  40 W9        29.98S
WARSAW +       MOSUNNY   77  55  47 W10G16    29.99S

$$

INZ006>009-017-018-025>027-041800-
NORTHEAST INDIANA

CITY           SKY/WX    TMP DP  RH WIND       PRES   REMARKS
ANGOLA *+      PTSUNNY   81  61  50 NW8       29.97S
AUBURN +       MOSUNNY   77  52  41 W8        29.98F
FORT WAYNE     PTSUNNY   79  57  46 W12G20    29.98F
HUNTINGTON +   SUNNY     78  56  48 SW10      29.98F

$$

INZ028-029-035-036-043>045-051>053-041800-
WEST CENTRAL INDIANA

CITY           SKY/WX    TMP DP  RH WIND       PRES   REMARKS
CRAWFORDSVL +  MOSUNNY   76  52  43 W6          N/A
GREENCASTLE +  PTSUNNY   77  52  41 CALM      30.01F
LAFAYETTE      MOSUNNY   79  60  52 NW10      30.00S
TERRE HAUTE    MOSUNNY   81  55  40 NW3       30.00F

$$

INZ030>032-037>040-046>048-054>057-064-065-041800-
CENTRAL INDIANA

CITY           SKY/WX    TMP DP  RH WIND       PRES   REMARKS
ANDERSON       SUNNY     77  46  33 SW6       30.01F
FISHERS *+     SUNNY     79  59  50 W9        30.00
FRANKFORT +    SUNNY     79  60  51 SW10      30.02S
GREENWOOD *+   MOSUNNY   79  52  38 W7        30.01F
INDIANAPOLIS   PTSUNNY   81  54  39 W13       30.00F
-EAGLE CREEK   MOSUNNY   80  55  42 W8        30.00F
KOKOMO *+      MOSUNNY   79  57  47 W13       30.00S
MARION +       MOSUNNY   76  58  52 W7        30.00F
MT COMFORT *+  SUNNY     81  43  26 W8        30.01S
SHELBYVILLE    SUNNY     81  58  45 VRB7      29.99F
ZIONSVILLE +   SUNNY     78  56  46 W14       30.02S

$$

INZ033-034-041-042-049-050-058-059-041800-
EAST CENTRAL INDIANA

CITY           SKY/WX    TMP DP  RH WIND       PRES   REMARKS
MUNCIE         SUNNY     76  56  49 W6        30.00F

$$

INZ060-061-067>069-081>083-085>088-041800-
SOUTHWEST INDIANA

CITY           SKY/WX    TMP DP  RH WIND       PRES   REMARKS
EVANSVILLE     PTSUNNY   86  68  54 W5        30.00S
HUNTINGBURG *+ PTSUNNY   82  70  65 NW6       30.01S
WASHINGTON +   PTSUNNY   79  62  56 CALM      30.00S

$$

INZ062-063-066-070>080-084-089>092-041800-
SOUTH CENTRAL AND SOUTHEAST INDIANA

CITY           SKY/WX    TMP DP  RH WIND       PRES   REMARKS
BLOOMINGTON    MOSUNNY   80  60  50 NW5       30.01F
MADISON *+     PTSUNNY   82  61  47 SW7       30.03S
NORTH VERNON + MOSUNNY   84  59  42 W9        30.01S
SEYMOUR +      MOSUNNY   84  63  48 W7        30.00F

$$




USA.gov is the U.S. government's official web portal to all federal, state and local government web resources and services.